Surface/Precipitation History
11/21/2014 21:40  to  11/22/2014 21:40
Change End Date:
Date/Time
(MST)
Sf
Temp Chem Water Layer Surface Precipitation
Sf Sub Frz Factor Pct Depth IcePct Cond Salin Type Intens Accum Rate
11/22/2014 21:30 Ice Warning 24.1F 32F 32F 85 0% - 100% 0 mhos 0 None None - -
11/22/2014 21:21 Ice Warning 23.9F 32F 32F 80 0% - 100% 0 mhos 0 None None - -
11/22/2014 21:11 Ice Warning 23.5F 32F 32F 80 0% - 100% 0 mhos 0 None None - -
11/22/2014 21:01 Ice Warning 23.7F 32F 32F 80 0% - 100% 0 mhos 0 None None - -
11/22/2014 21:00 Ice Warning 23.7F 32F 32F 80 0% - 100% 0 mhos 0 None None - -
11/22/2014 20:51 Ice Warning 23.5F 31F 32F 80 0% - 100% 0 mhos 0 None None - -
11/22/2014 20:41 Ice Warning 23.4F 32F 32F 80 0% - 100% 0 mhos 0 None None - -
11/22/2014 20:31 Ice Warning 23.4F 32F 32F 80 0% - 100% 0 mhos 0 None None - -
11/22/2014 20:31 Ice Warning 23.4F 31F 32F 80 0% - 100% 0 mhos 0 None None - -
11/22/2014 20:21 Ice Warning 23.4F 32F 32F 75 0% - 100% 0 mhos 0 None None - -
11/22/2014 20:11 Ice Warning 23.5F 32F 32F 85 0% - 100% 0 mhos 0 None None - -
11/22/2014 20:01 Ice Warning 23.9F 32F 32F 85 0% - 100% 0 mhos 0 None None - -
11/22/2014 20:01 Ice Warning 23.9F 32F 32F 85 0% - 100% 0 mhos 0 None None - -
11/22/2014 19:51 Ice Warning 23.9F 32F 32F 90 0% - 100% 0 mhos 0 None None - -
11/22/2014 19:41 Ice Warning 24.3F 32F 32F 90 0% - 100% 0 mhos 0 None None - -
Date/Time
(MST)
Sf
Temp Chem Water Layer Surface Precipitation
Sf Sub Frz Factor Pct Depth IcePct Cond Salin Type Intens Accum Rate
11/22/2014 19:31 Ice Warning 24.6F 32F 32F 90 0% - 100% 0 mhos 0 None None - -
11/22/2014 19:30 Ice Warning 24.6F 32F 32F 95 0% - 100% 0 mhos 0 None None - -
11/22/2014 19:20 Ice Warning 24.4F 31F 32F 85 0% - 100% 0 mhos 0 None None - -
11/22/2014 19:10 Ice Warning 24.6F 32F 32F 85 0% - 100% 0 mhos 0 None None - -
11/22/2014 19:00 Ice Warning 24.6F 32F 32F 90 0% - 100% 0 mhos 0 None None - -
11/22/2014 18:50 Ice Warning 25.0F 32F 32F 90 0% - 100% 0 mhos 0 None None - -
11/22/2014 18:40 Ice Warning 25.0F 32F 32F 85 0% - 100% 0 mhos 0 None None - -
11/22/2014 18:30 Ice Warning 25.3F 32F 32F 85 0% - 100% 0 mhos 0 None None - -
11/22/2014 18:30 Ice Warning 25.3F 32F 32F 85 0% - 100% 0 mhos 0 None None - -
11/22/2014 18:20 Ice Warning 25.2F 32F 32F 80 0% - 100% 0 mhos 0 None None - -
11/22/2014 18:10 Ice Warning 25.3F 32F 32F 70 0% - 100% 0 mhos 0 None None - -
11/22/2014 18:01 Ice Warning 25.7F 31F 32F 75 0% - 100% 0 mhos 0 None None - -
11/22/2014 18:00 Ice Warning 25.7F 32F 32F 75 0% - 100% 0 mhos 0 None None - -
11/22/2014 17:50 Ice Warning 25.7F 32F 32F 80 0% - 100% 0 mhos 0 None None - -
11/22/2014 17:40 Ice Warning 26.1F 32F 32F 55 0% - 100% 0 mhos 0 None None - -
Date/Time
(MST)
Sf
Temp Chem Water Layer Surface Precipitation
Sf Sub Frz Factor Pct Depth IcePct Cond Salin Type Intens Accum Rate
11/22/2014 17:31 Ice Warning 26.2F 31F 32F 50 0% - 100% 0 mhos 0 None None - -
11/22/2014 17:30 Ice Warning 26.2F 31F 32F 40 0% - 100% 0 mhos 0 None None - -
11/22/2014 17:20 Ice Warning 26.4F 31F 32F 15 0% - 100% 0 mhos 0 None None - -
11/22/2014 17:10 Ice Warning 26.6F 32F 32F 15 0% - 100% 0 mhos 0 None None - -
11/22/2014 17:01 Ice Warning 26.8F 32F 32F 15 0% - 100% 0 mhos 0 None None - -
11/22/2014 17:00 Ice Warning 27.0F 31F 32F 15 0% - 100% 0 mhos 0 None None - -
11/22/2014 16:50 Other - 31F - - - - - - - Yes - - -
11/22/2014 16:01 Ice Warning 29.5F 31F 32F 40 0% - 100% 0 mhos 0 None None - -
11/22/2014 15:53 Ice Warning 30.0F 31F 32F 35 0% - 100% 0 mhos 0 None None - -
11/22/2014 15:42 Ice Warning 30.7F 31F 32F 35 0% - 100% 0 mhos 0 None None - -
11/22/2014 15:32 Ice Warning 31.5F 31F 32F 30 0% - 100% 0 mhos 0 None None - -
11/22/2014 15:31 Ice Warning 31.8F 31F 32F 35 0% - 100% 0 mhos 0 None None - -
11/22/2014 15:22 Ice Warning 31.8F 32F 32F 30 0% - 100% 1 mhos 0 None None - -
11/22/2014 15:12 Wet 32.4F 31F 32F 20 0% 0.00 in 0% 1 mhos 0 None None - -
11/22/2014 15:02 Wet 34.3F 31F 32F 75 0% 0.00 in 0% 1 mhos 0 None None - -
Date/Time
(MST)
Sf
Temp Chem Water Layer Surface Precipitation
Sf Sub Frz Factor Pct Depth IcePct Cond Salin Type Intens Accum Rate
11/22/2014 15:01 Wet 34.2F 31F 32F 85 0% 0.00 in 0% 1 mhos 0 Yes - - -
11/22/2014 14:52 Wet 33.8F 31F 32F 95 0% 0.00 in 0% 1 mhos 0 Yes - - -
11/22/2014 14:42 Wet 34.3F 31F 32F 95 0% 0.00 in 0% 0 mhos 0 None None - -
11/22/2014 14:40 Wet 34.5F 31F 32F 95 0% 0.00 in 0% 0 mhos 0 None None - -
11/22/2014 14:35 Wet 34.7F 32F 32F 90 0% 0.00 in 0% 0 mhos 0 None None - -
11/22/2014 14:32 Wet 34.3F 31F 32F 95 0% 0.00 in 0% 0 mhos 0 None None - -
11/22/2014 14:22 Wet 33.3F 32F 32F 90 0% 0.00 in 0% 1 mhos 0 None None - -
11/22/2014 14:12 Wet 32.9F 32F 32F 70 0% 0.00 in 0% 0 mhos 0 Yes - - -
11/22/2014 14:02 Wet 32.5F 31F 32F 55 0% 0.00 in 0% 0 mhos 0 Other Other - -
11/22/2014 14:01 Wet 32.5F 31F 32F 45 0% 0.00 in 0% 0 mhos 0 Other Other - -
11/22/2014 13:52 Wet 32.5F 31F 32F 80 0% 0.10 in 0% 0 mhos 0 Other Other - -
11/22/2014 13:42 Wet 32.5F 31F 32F 20 0% 0.10 in 0% 0 mhos 0 Other Other - -
11/22/2014 13:32 Wet 32.5F 31F 32F 5 0% 0.10 in 0% 0 mhos 0 Other Other - -
11/22/2014 13:31 Wet 32.5F 31F 32F 5 0% 0.10 in 0% 0 mhos 0 Other Other - -
11/22/2014 13:22 Wet 32.7F 31F 32F 5 0% 0.10 in 0% 0 mhos 0 Yes - - -
Date/Time
(MST)
Sf
Temp Chem Water Layer Surface Precipitation
Sf Sub Frz Factor Pct Depth IcePct Cond Salin Type Intens Accum Rate
11/22/2014 13:11 Wet 33.8F 31F 32F 5 0% 0.00 in 0% 0 mhos 0 Yes - - -
11/22/2014 13:01 Wet 38.5F 31F 32F 50 0% 0.00 in 0% 1 mhos 0 None None - -
11/22/2014 13:01 Wet 38.5F 31F 32F 50 0% 0.00 in 0% 1 mhos 0 None None - -
11/22/2014 12:51 Wet 39.4F 31F 32F 20 0% 0.00 in 0% 1 mhos 0 None None - -
11/22/2014 12:41 Wet 38.3F 31F 32F 25 0% 0.00 in 0% 1 mhos 0 None None - -
11/22/2014 12:31 Wet 39.2F 31F 32F 20 0% 0.00 in 0% 1 mhos 0 None None - -
11/22/2014 12:31 Wet 39.2F 31F 32F 20 0% 0.00 in 0% 1 mhos 0 None None - -
11/22/2014 12:21 Wet 39.9F 31F 32F 15 0% 0.00 in 0% 1 mhos 0 None None - -
11/22/2014 12:11 Wet 42.1F 31F 32F 65 0% 0.00 in 0% 1 mhos 0 None None - -
11/22/2014 12:01 Wet 40.3F 31F 32F 75 0% 0.00 in 0% 1 mhos 0 None None - -
11/22/2014 12:00 Wet 40.3F 31F 32F 70 0% 0.00 in 0% 1 mhos 0 None None - -
11/22/2014 11:51 Wet 41.2F 31F 32F 95 0% 0.00 in 0% 1 mhos 0 None None - -
11/22/2014 11:41 Wet 39.9F 31F 32F 95 0% 0.00 in 0% 1 mhos 0 None None - -
11/22/2014 11:31 Wet 38.5F 31F 32F 95 0% 0.00 in 0% 1 mhos 0 None None - -
11/22/2014 11:31 Wet 38.5F 31F 32F 95 0% 0.00 in 0% 1 mhos 0 None None - -
Date/Time
(MST)
Sf
Temp Chem Water Layer Surface Precipitation
Sf Sub Frz Factor Pct Depth IcePct Cond Salin Type Intens Accum Rate
11/22/2014 11:21 Wet 39.9F 31F 32F 95 0% 0.00 in 0% 2 mhos 0 None None - -
11/22/2014 11:11 Wet 37.8F 31F 32F 95 0% 0.00 in 0% 1 mhos 0 Yes - - -
11/22/2014 11:01 Wet 35.4F 32F 32F 95 0% 0.10 in 0% 1 mhos 0 Yes - - -
11/22/2014 11:01 Wet 35.4F 31F 32F 95 0% 0.10 in 0% 1 mhos 0 Yes - - -
11/22/2014 10:51 Wet 34.2F 31F 32F 95 0% 0.00 in 0% 1 mhos 0 Yes - - -
11/22/2014 10:40 Wet 32.4F 31F 32F 95 0% 0.00 in 0% 1 mhos 0 Yes - - -
11/22/2014 10:31 Wet 32.4F 31F 32F 95 0% 0.10 in 0% 1 mhos 0 Yes - - -
11/22/2014 10:30 Wet 32.4F 31F 32F 95 0% 0.00 in 0% 1 mhos 0 Yes - - -
11/22/2014 10:20 Wet 32.2F 31F 32F 90 0% 0.00 in 0% 0 mhos 0 Yes - - -
11/22/2014 10:10 Wet 32.2F 31F 32F 70 0% 0.00 in 0% 0 mhos 0 Yes - - -
11/22/2014 10:01 Wet 32.2F 31F 32F 35 0% 0.00 in 0% 0 mhos 0 Yes - - -
11/22/2014 10:00 Wet 32.2F 31F 32F 95 0% 0.10 in 0% 0 mhos 0 Yes - - -
11/22/2014 09:50 Wet 32.2F 31F 32F 60 0% 0.00 in 0% 1 mhos 0 Yes - - -
11/22/2014 09:40 Ice Warning 32.0F 31F 32F 50 0% - 100% 1 mhos 0 Yes - - -
11/22/2014 09:31 Ice Warning 32.0F 31F 32F 95 0% - 100% 2 mhos 0 Yes - - -
Date/Time
(MST)
Sf
Temp Chem Water Layer Surface Precipitation
Sf Sub Frz Factor Pct Depth IcePct Cond Salin Type Intens Accum Rate
11/22/2014 09:30 Ice Warning 32.0F 31F 32F 95 0% - 100% 1 mhos 0 Yes - - -
11/22/2014 09:20 Ice Warning 32.0F 31F 32F 95 0% - 100% 2 mhos 0 Yes - - -
11/22/2014 09:10 Ice Warning 32.0F 31F 32F 95 0% - 100% 2 mhos 0 Yes - - -
11/22/2014 09:00 Ice Warning 32.0F 31F 32F 95 0% - 100% 3 mhos 0 None None - -
11/22/2014 09:00 Ice Warning 32.0F 31F 32F 95 0% - 100% 3 mhos 0 None None - -
11/22/2014 08:50 Ice Warning 32.0F 31F 32F 95 0% - 100% 2 mhos 0 None None - -
11/22/2014 08:40 Ice Warning 32.0F 31F 32F 95 0% - 100% 3 mhos 0 None None - -
11/22/2014 08:30 Ice Warning 32.0F 31F 32F 95 0% - 100% 2 mhos 0 None None - -
11/22/2014 08:30 Ice Warning 32.0F 31F 32F 95 0% - 100% 2 mhos 0 None None - -
11/22/2014 08:20 Wet 32.2F 31F 32F 95 0% 0.00 in 0% 3 mhos 0 None None - -
11/22/2014 08:10 Ice Warning 32.0F 31F 32F 95 0% - 100% 2 mhos 0 None None - -
11/22/2014 08:01 Ice Warning 32.0F 31F 32F 95 0% - 100% 2 mhos 0 None None - -
11/22/2014 07:59 Ice Warning 32.0F 31F 32F 95 0% - 100% 3 mhos 0 None None - -
11/22/2014 07:49 Wet 32.2F 31F 32F 95 0% 0.00 in 0% 3 mhos 0 None None - -
11/22/2014 07:39 Wet 32.2F 31F 32F 95 0% 0.00 in 0% 3 mhos 0 None None - -
Date/Time
(MST)
Sf
Temp Chem Water Layer Surface Precipitation
Sf Sub Frz Factor Pct Depth IcePct Cond Salin Type Intens Accum Rate
11/22/2014 07:30 Wet 32.2F 31F 32F 95 0% 0.00 in 0% 2 mhos 0 None None - -
11/22/2014 07:29 Wet 32.2F 31F 32F 95 0% 0.00 in 0% 2 mhos 0 None None - -
11/22/2014 07:19 Wet 32.2F 31F 32F 95 0% 0.00 in 0% 3 mhos 0 None None - -
11/22/2014 07:09 Wet 32.2F 31F 32F 95 0% 0.00 in 0% 3 mhos 0 None None - -
11/22/2014 07:01 Ice Warning 32.0F 31F 32F 95 0% - 100% 2 mhos 0 None None - -
11/22/2014 06:59 Wet 32.2F 31F 32F 95 0% 0.00 in 0% 2 mhos 0 None None - -
11/22/2014 06:49 Ice Warning 32.0F 31F 32F 95 0% - 100% 2 mhos 0 None None - -
11/22/2014 06:39 Ice Warning 32.0F 31F 32F 95 0% - 100% 1 mhos 0 Yes - - -
11/22/2014 06:30 Ice Warning 32.0F 31F 32F 95 0% - 100% 1 mhos 0 Yes - - -
11/22/2014 06:29 Ice Warning 32.0F 31F 32F 95 0% - 100% 1 mhos 0 Yes - - -
11/22/2014 06:19 Ice Warning 32.0F 31F 32F 95 0% - 100% 2 mhos 0 Yes - - -
11/22/2014 06:09 Ice Warning 32.0F 31F 32F 95 0% - 100% 2 mhos 0 Yes - - -
11/22/2014 06:00 Ice Warning 32.0F 31F 32F 95 0% - 100% 2 mhos 0 Yes - - -
11/22/2014 05:59 Ice Warning 32.0F 31F 32F 95 0% - 100% 2 mhos 0 Yes - - -
11/22/2014 05:49 Wet 32.2F 31F 32F 95 0% 0.00 in 0% 2 mhos 0 Yes - - -
Date/Time
(MST)
Sf
Temp Chem Water Layer Surface Precipitation
Sf Sub Frz Factor Pct Depth IcePct Cond Salin Type Intens Accum Rate
11/22/2014 05:39 Ice Warning 32.0F 31F 32F 95 0% - 100% 3 mhos 0 None None - -
11/22/2014 05:30 Ice Warning 32.0F 31F 32F 95 0% - 100% 3 mhos 0 Yes - - -
11/22/2014 05:29 Ice Warning 32.0F 31F 32F 95 0% - 100% 3 mhos 0 Yes - - -
11/22/2014 05:18 Ice Warning 32.0F 31F 32F 95 0% - 100% 1 mhos 0 Yes - - -
11/22/2014 05:08 Ice Warning 32.0F 31F 32F 95 0% - 100% 1 mhos 0 Yes - - -
11/22/2014 05:01 Ice Warning 32.0F 31F 32F 95 0% - 100% 1 mhos 0 Yes - - -
11/22/2014 04:58 Ice Warning 32.0F 31F 32F 95 0% - 100% 1 mhos 0 Yes - - -
11/22/2014 04:48 Ice Warning 32.0F 31F 32F 95 0% - 100% 1 mhos 0 Yes - - -
11/22/2014 04:38 Ice Warning 31.8F 31F 32F 95 0% - 100% 3 mhos 0 Yes - - -
11/22/2014 04:30 Wet 32.4F 31F 32F 95 0% 0.00 in 0% 3 mhos 0 Yes - - -
11/22/2014 04:28 Wet 32.4F 31F 32F 45 0% 0.00 in 0% 3 mhos 0 Yes - - -
11/22/2014 04:18 Wet 32.7F 31F 32F 40 0% 0.00 in 0% 2 mhos 0 Yes - - -
11/22/2014 04:08 Wet 32.7F 31F 32F 50 0% 0.00 in 0% 2 mhos 0 Yes - - -
11/22/2014 04:01 Wet 32.5F 31F 32F 40 0% 0.00 in 0% 3 mhos 0 None None - -
11/22/2014 03:58 Wet 32.5F 31F 32F 50 0% 0.00 in 0% 3 mhos 0 Yes - - -
Date/Time
(MST)
Sf
Temp Chem Water Layer Surface Precipitation
Sf Sub Frz Factor Pct Depth IcePct Cond Salin Type Intens Accum Rate
11/22/2014 03:48 Wet 32.7F 31F 32F 90 0% 0.00 in 0% 3 mhos 0 Yes - - -
11/22/2014 03:38 Wet 32.5F 31F 32F 95 0% 0.00 in 0% 3 mhos 0 None None - -
11/22/2014 03:30 Wet 32.4F 31F 32F 95 0% 0.00 in 0% 2 mhos 0 None None - -
11/22/2014 03:28 Wet 32.4F 31F 32F 95 0% 0.00 in 0% 2 mhos 0 None None - -
11/22/2014 03:18 Wet 32.2F 31F 32F 95 0% 0.00 in 0% 2 mhos 0 None None - -
11/22/2014 03:08 Wet 32.4F 31F 32F 95 0% 0.00 in 0% 2 mhos 0 None None - -
11/22/2014 03:01 Wet 32.4F 31F 32F 95 0% 0.00 in 0% 2 mhos 0 None None - -
11/22/2014 02:58 Wet 32.4F 31F 32F 95 0% 0.00 in 0% 2 mhos 0 None None - -
11/22/2014 02:47 Wet 32.2F 31F 32F 95 0% 0.00 in 0% 2 mhos 0 None None - -
11/22/2014 02:37 Ice Warning 31.8F 31F 32F 95 0% - 100% 3 mhos 0 None None - -
11/22/2014 02:30 Ice Warning 31.5F 31F 32F 95 0% - 100% 3 mhos 0 None None - -
11/22/2014 02:27 Ice Warning 31.5F 31F 32F 95 0% - 100% 2 mhos 0 None None - -
11/22/2014 02:17 Ice Warning 31.3F 31F 32F 85 0% - 100% 2 mhos 0 None None - -
11/22/2014 02:07 Ice Warning 31.5F 31F 32F 85 0% - 100% 2 mhos 0 None None - -
11/22/2014 02:01 Ice Warning 31.5F 31F 32F 85 0% - 100% 2 mhos 0 None None - -
Date/Time
(MST)
Sf
Temp Chem Water Layer Surface Precipitation
Sf Sub Frz Factor Pct Depth IcePct Cond Salin Type Intens Accum Rate
11/22/2014 01:57 Ice Warning 31.8F 31F 32F 90 0% - 100% 2 mhos 0 None None - -
11/22/2014 01:47 Wet 32.2F 31F 32F 90 0% 0.00 in 0% 2 mhos 0 Yes - - -
11/22/2014 01:37 Wet 32.2F 31F 32F 95 0% 0.00 in 0% 4 mhos 0 None None - -
11/22/2014 01:30 Wet 32.2F 31F 32F 95 0% 0.00 in 0% 4 mhos 0 None None - -
11/22/2014 01:27 Wet 32.2F 31F 32F 95 0% 0.00 in 0% 4 mhos 0 None None - -
11/22/2014 01:17 Ice Warning 31.8F 31F 32F 95 0% - 100% 4 mhos 0 None None - -
11/22/2014 01:07 Wet 32.2F 31F 32F 95 0% 0.00 in 0% 4 mhos 0 None None - -
11/22/2014 01:00 Wet 32.2F 31F 32F 95 0% 0.00 in 0% 4 mhos 0 Yes - - -
11/22/2014 00:57 Wet 32.2F 31F 32F 95 0% 0.00 in 0% 4 mhos 0 Yes - - -
11/22/2014 00:47 Ice Warning 32.0F 31F 32F 95 0% - 100% 4 mhos 0 Yes - - -
11/22/2014 00:37 Ice Warning 31.6F 31F 32F 95 0% - 100% 5 mhos 0 Yes - - -
11/22/2014 00:30 Ice Warning 31.5F 31F 32F 95 0% - 100% 5 mhos 0 Yes - - -
11/22/2014 00:27 Ice Warning 31.5F 31F 32F 95 0% - 100% 6 mhos 0 Yes - - -
11/22/2014 00:17 Ice Warning 31.3F 31F 32F 95 0% - 100% 5 mhos 0 Yes - - -
11/22/2014 00:10 Ice Warning 31.3F 31F 32F 95 0% - 100% 6 mhos 0 Yes - - -
Date/Time
(MST)
Sf
Temp Chem Water Layer Surface Precipitation
Sf Sub Frz Factor Pct Depth IcePct Cond Salin Type Intens Accum Rate
11/22/2014 00:06 Ice Warning 31.5F 31F 32F 95 0% - 100% 6 mhos 0 Yes - - -
11/22/2014 00:05 Ice Warning 31.5F 31F 32F 95 0% - 100% 5 mhos 0 Yes - - -
11/21/2014 23:56 Ice Warning 31.6F 31F 32F 95 0% - 100% 1 mhos 0 Yes - - -
11/21/2014 23:46 Ice Warning 31.6F 31F 32F 80 0% - 100% 1 mhos 0 Yes - - -
11/21/2014 23:36 Ice Warning 32.0F 31F 32F 35 0% - 100% 2 mhos 0 Yes - - -
11/21/2014 23:30 Wet 32.4F 31F 32F 30 0% 0.00 in 0% 1 mhos 0 Yes - - -
11/21/2014 23:26 Wet 32.5F 31F 32F 5 0% 0.00 in 0% 1 mhos 0 Yes - - -
11/21/2014 23:16 Wet 33.3F 31F 32F 5 0% 0.00 in 0% 0 mhos 0 None None - -
11/21/2014 23:06 Wet 32.7F 31F 32F 5 0% 0.00 in 0% 0 mhos 0 None None - -
11/21/2014 23:00 Wet 32.5F 31F 32F 5 0% 0.00 in 0% 0 mhos 0 Yes - - -
11/21/2014 22:56 Trace Moisture 32.5F 31F - 5 - - - 0 mhos 0 None None - -
11/21/2014 22:46 Trace Moisture 32.5F 31F - 5 - - - 0 mhos 0 None None - -
11/21/2014 22:36 Trace Moisture 32.4F 31F - 5 - - - 0 mhos 0 None None - -
11/21/2014 22:30 Trace Moisture 32.2F 31F - 5 - - - 0 mhos 0 None None - -
11/21/2014 22:26 Trace Moisture 32.2F 31F - 5 - - - 0 mhos 0 None None - -
Date/Time
(MST)
Sf
Temp Chem Water Layer Surface Precipitation
Sf Sub Frz Factor Pct Depth IcePct Cond Salin Type Intens Accum Rate
11/21/2014 22:16 Ice Watch 31.6F 31F - 5 - - - 0 mhos 0 None None - -
11/21/2014 22:06 Trace Moisture 32.2F 31F - 5 - - - 0 mhos 0 None None - -
11/21/2014 22:01 Ice Watch 31.8F 31F - 5 - - - 0 mhos 0 None None - -
11/21/2014 21:56 Ice Watch 31.8F 31F - 5 - - - 0 mhos 0 None None - -
11/21/2014 21:46 Ice Watch 31.8F 31F - 5 - - - 0 mhos 0 None None - -
Change End Date:
Copyright © 1998-2005 Surface Systems, Inc.
All Rights Reserved
Send comments about the data to:
SCAN Web ® is a registered trademark of Surface Systems, Inc.
SCAN Web Version 5.6